Weather History for KSBY - February, 2013

Change the Weather History Date:

Wednesday, February 13, 2013

  Actual Average Record
Temperature  
Mean Temperature 44 °F 37 °F  
Max Temperature 48 °F 47 °F 70 °F (1951)
Min Temperature 39 °F 28 °F -1 °F (1979)
Degree Days  
Heating Degree Days 21 28  
Month to date heating degree days 350 371  
Since 1 July heating degree days 2414 2912  
Cooling Degree Days 0 0  
Month to date cooling degree days 0 0  
Year to date cooling degree days 0 0  
Moisture  
Dew Point 36 °F    
Average Humidity 75    
Maximum Humidity 89    
Minimum Humidity 60    
Precipitation  
Precipitation 0.46 in 0.11 in 1.71 in (2008)
Month to date precipitation 2.35 1.54  
Year to date precipitation 5.35 5.15  
Snow  
Snow 0.00 in 0.20 in 8.70 in (1982)
Month to date snowfall T 1.8  
Since 1 July snowfall 2.8 6.8  
Snow Depth -    
Sea Level Pressure  
Sea Level Pressure 29.74 in    
Wind  
Wind Speed 9 mph (NNE)    
Max Wind Speed 15 mph    
Max Gust Speed 21 mph    
Visibility 6 miles    
Events Rain    
T = Trace of Precipitation, MM = Missing Value Source: NWS Daily Summary

Daily Weather History Graph

Daily Weather History Graph

Search for Another Location

Airport or City:

Trip Planner

Search our weather history database for the weather conditions in past years. The results will help you decide how hot, cold, wet, or windy it might be!

Date:

Astronomy

Feb. 13, 2013 Rise Set
Actual Time 6:54 AM EST 5:38 PM EST
Civil Twilight 6:27 AM EST 6:05 PM EST
Nautical Twilight 5:56 AM EST 6:36 PM EST
Astronomical Twilight 5:25 AM EST 7:07 PM EST
Moon 8:26 AM EST (2/13) 9:34 PM EST (2/13)
Length of Visible Light 11h 38m
Length of Day
10h 43m
Waxing Crescent, 13% of the Moon is Illuminated
Feb 13
Waxing Crescent
Feb 17
First Quarter
Feb 25
Full
Mar 4
Last Quarter
Mar 11
New

Hourly Weather History & Observations

Time (EST) Temp. Windchill Dew Point Humidity Pressure Visibility Wind Dir Wind Speed Gust Speed Precip Events Conditions
12:54 AM 41.0 °F 38.0 °F 33.1 °F 73% 29.95 in 10.0 mi ESE 4.6 mph - N/A   Clear
1:54 AM 41.0 °F 38.0 °F 33.1 °F 73% 29.95 in 10.0 mi North 4.6 mph - N/A   Clear
2:54 AM 41.0 °F 35.8 °F 32.0 °F 70% 29.91 in 10.0 mi NE 8.1 mph - N/A   Clear
3:54 AM 41.0 °F 36.4 °F 30.9 °F 67% 29.90 in 10.0 mi ENE 6.9 mph - N/A   Clear
4:54 AM 41.0 °F 35.8 °F 30.9 °F 67% 29.91 in 10.0 mi East 8.1 mph - N/A   Clear
5:54 AM 39.0 °F 32.8 °F 28.9 °F 67% 29.88 in 10.0 mi ENE 9.2 mph - N/A   Partly Cloudy
6:54 AM 39.9 °F 33.9 °F 30.0 °F 68% 29.88 in 10.0 mi ENE 9.2 mph - N/A   Overcast
7:54 AM 41.0 °F 36.4 °F 30.0 °F 65% 29.90 in 10.0 mi East 6.9 mph - N/A   Partly Cloudy
8:54 AM 42.1 °F 36.6 °F 30.9 °F 65% 29.89 in 10.0 mi ENE 9.2 mph - N/A   Clear
9:54 AM 45.0 °F 38.9 °F 33.1 °F 63% 29.87 in 10.0 mi East 12.7 mph 16.1 mph N/A   Clear
10:54 AM 46.9 °F - 33.1 °F 59% 29.86 in 10.0 mi ENE 10.4 mph - N/A   Scattered Clouds
11:54 AM 48.0 °F - 35.1 °F 61% 29.81 in 10.0 mi East 9.2 mph - N/A   Overcast
12:54 PM 46.9 °F - 37.0 °F 68% 29.77 in 10.0 mi East 9.2 mph - 0.00 in Rain Light Rain
1:54 PM 46.0 °F 41.4 °F 39.0 °F 76% 29.72 in 5.0 mi ENE 9.2 mph - 0.00 in Rain Light Rain
2:54 PM 46.9 °F - 39.0 °F 74% 29.68 in 10.0 mi ENE 10.4 mph - 0.00 in Rain Light Rain
3:54 PM 46.9 °F - 39.9 °F 77% 29.65 in 5.0 mi ENE 5.8 mph - 0.01 in   Haze
4:00 PM 46.4 °F 42.9 °F 41.0 °F 81% 29.64 in 2.5 mi NE 6.9 mph - 0.00 in Rain Light Rain
4:23 PM 46.4 °F 42.9 °F 42.8 °F 87% 29.63 in 1.2 mi NE 6.9 mph - 0.00 in Rain Light Rain
4:36 PM 46.4 °F 43.5 °F 42.8 °F 87% 29.63 in 1.2 mi NE 5.8 mph - 0.01 in   Overcast
4:54 PM 45.0 °F 41.2 °F 42.1 °F 90% 29.62 in 1.0 mi NE 6.9 mph - 0.07 in Rain Rain
5:11 PM 44.6 °F 40.2 °F 41.0 °F 87% 29.61 in 2.5 mi NNE 8.1 mph - 0.01 in Rain Light Rain
5:28 PM 44.6 °F 40.7 °F 41.0 °F 87% 29.62 in 1.5 mi North 6.9 mph - 0.03 in Rain Rain
5:54 PM 44.1 °F 40.8 °F 39.9 °F 85% 29.61 in 2.0 mi North 5.8 mph - 0.07 in Rain Light Rain
6:16 PM 42.8 °F 39.3 °F 39.2 °F 87% 29.62 in 3.0 mi NNW 5.8 mph - 0.03 in Rain Rain
6:30 PM 42.8 °F 39.3 °F 39.2 °F 87% 29.62 in 3.0 mi NNW 5.8 mph - 0.06 in Rain Light Rain
6:40 PM 42.8 °F 38.0 °F 39.2 °F 87% 29.62 in 2.5 mi NNW 8.1 mph - 0.07 in Rain Light Rain
6:54 PM 43.0 °F 38.2 °F 39.0 °F 86% 29.64 in 3.0 mi NNW 8.1 mph - 0.09 in Rain Light Rain
7:21 PM 42.8 °F 37.5 °F 39.2 °F 87% 29.62 in 3.0 mi NNW 9.2 mph - 0.06 in Rain Rain
7:54 PM 42.1 °F 37.1 °F 37.9 °F 85% 29.63 in 6.0 mi North 8.1 mph - 0.11 in Rain Light Rain
8:54 PM 41.0 °F 35.2 °F 37.0 °F 86% 29.63 in 4.0 mi NNW 9.2 mph - 0.04 in Rain Light Rain
9:54 PM 39.9 °F 33.9 °F 36.0 °F 86% 29.66 in 6.0 mi NNW 9.2 mph - 0.05 in Rain Light Rain
10:23 PM 39.2 °F 30.8 °F 35.6 °F 87% 29.67 in 7.0 mi North 15.0 mph 20.7 mph 0.01 in Rain Light Rain
10:54 PM 39.0 °F 32.3 °F 35.1 °F 86% 29.70 in 9.0 mi NNW 10.4 mph - 0.01 in Rain Light Rain
11:54 PM 39.0 °F 32.3 °F 34.0 °F 82% 29.72 in 8.0 mi NNW 10.4 mph - 0.01 in   Overcast